Regional Weather Roundup
Issued by NWS Wakefield, VA

Home | Current Version | Previous Version | Graphics & Text | Print | Product List | Glossary On
Versions: 1 2 3 4 5 6 7 8 9 10 11 12 13 14 15 16 17 18 19 20 21 22 23 24 25 26 27 28 29 30 31 32 33 34 35 36 37 38 39 40 41 42 43 44 45 46 47 48 49 50
181
ASUS41 KAKQ 220615
RWRAKQ

REGIONAL WEATHER ROUNDUP
NATIONAL WEATHER SERVICE WAKEFIELD VA
100 AM EST MON JAN 22 2018

Note: "fair" indicates few or no clouds below 12,000 feet with no
significant weather and/or obstructions to visibility. * = Denotes
station may not report precipitation (e.g., rain,snow,etc.),
thunder or fog.

VAZ042-051-052>054-056-220700-
NORTHERN VIRGINIA

CITY           SKY/WX    TMP DP  RH WIND       PRES   REMARKS
WASH NATIONAL  CLOUDY    50  40  68 S9        30.14F
DULLES         MOCLDY    53  44  71 S7        30.12F
FORT BELVOIR   CLOUDY    44  37  75 CALM        N/A
QUANTICO       NOT AVBL
FREDERICKSBRG* MOCLDY    54  45  70 S6        30.14F
STAFFORD*      FAIR      51  44  77 CALM      30.18F
WARRENTON      CLOUDY    43  36  75 SW3       30.13F
CULPEPER*      CLOUDY    47  40  78 CALM      30.14F
MANASSAS*      CLOUDY    47  41  80 CALM      30.14F
LEESBURG*      CLOUDY    45  43  93 CALM      30.13F
WINCHESTER     CLOUDY    52  43  71 SW7       30.12F
FRONT ROYAL*   CLOUDY    55  45  67 SE5       30.11F
LURAY*         CLOUDY    54  45  71 SW9       30.13F
$$

VAZ048-049-060>072-079>083-220700-
CENTRAL AND SOUTH CENTRAL VIRGINIA

CITY           SKY/WX    TMP DP  RH WIND       PRES   REMARKS
RICHMOND       MOCLDY    52  37  56 S8        30.18F
CHESTERFIELD*  NOT AVBL
PETERSBURG*    CLOUDY    48  36  61 CALM      30.20S
HANOVER        CLOUDY    54  38  54 S7        30.19F
TAPPAHANNOCK*  CLOUDY    53  38  57 S5        30.18F
QUINTON*       CLOUDY    53  36  53 S7        30.19S
CHARLOTTSVILLE CLOUDY    56  44  64 SW5       30.14F
GORDONSVILLE*  MOCLDY    46  42  89 CALM      30.14F
ORANGE*        CLOUDY    46  41  81 CALM      30.14F
LOUISA*        MOCLDY    53  42  66 S6        30.19F
BUMPASS*       CLOUDY    54  42  63 S6        30.16F
FARMVILLE*     CLOUDY    52  45  75 CALM      30.16F
CREWE*         CLOUDY    52  44  75 S3        30.18S
FORT PICKETT*  CLOUDY    49  42  74 S9        30.19S
CHASE CITY*    MOCLDY    47  44  87 CALM      30.19F
CLARKSVILLE*   FAIR      45  41  87 S3        30.19S
SOUTH HILL*    FAIR      44  42  93 CALM      30.26R
LAWRENCEVILLE* FAIR      46  37  70 CALM      30.20S
EMPORIA*       FAIR      43  36  75 CALM      30.21F
$$

VAZ088>098-220700-
SOUTHEAST VIRGINIA

CITY           SKY/WX    TMP DP  RH WIND       PRES   REMARKS
NORFOLK        CLOUDY    53  41  63 SW8       30.20S
VIRGINIA BEACH MOCLDY    52  39  61 S6        30.20F
NORFOLK NAVAL  CLOUDY    54  39  57 S9        30.21F
WEST POINT*    CLOUDY    53  37  53 SW3       30.21S
SALUDA*        CLOUDY    47  41  80 CALM      30.19S
NEWPORT NEWS   NOT AVBL
LANGLEY AFB    CLOUDY    53  39  61 S10       30.19F
FORT EUSTIS    CLOUDY    52  37  57 SW5       30.17S
WILLIAMSBURG*  CLOUDY    52  39  62 CALM      30.20S
HR EXEC AP*    CLOUDY    51  37  58 S6        30.21F
FRANKLIN*      CLOUDY    50  37  62 S5        30.21F
US460-WAKEFLD  CLOUDY    52  38  58 CALM      30.20F
$$

VAZ020-022-025-037-045-220700-
WEST CENTRAL AND SOUTHWEST VIRGINIA

CITY           SKY/WX    TMP DP  RH WIND       PRES   REMARKS
STAUNTON*      CLOUDY    45  41  86 CALM      30.16F
WAYNESBORO*    CLOUDY    46  43  88 CALM      30.15F
HOT SPRINGS VA CLOUDY    49  38  66 SW10      30.17F
LYNCHBURG      CLOUDY    50  42  74 SW6       30.17F
DANVILLE         N/A    N/A N/A N/A MISG      30.18F
SOUTH BOSTON*  MOCLDY    45  40  82 CALM      30.18F
MARTINSVILLE   FAIR      36  35  95 CALM      30.21S
ROANOKE        CLOUDY    46  40  79 VRB3      30.18F
BLACKSBURG     CLOUDY    43  39  86 CALM      30.21F
DUBLIN*        CLOUDY    46  40  80 CALM      30.19S
MARION*        CLOUDY    40  36  85 CALM      30.20F
HILLSVILLE*    MOCLDY    49  40  70 S6        30.17F
RICHLANDS*     CLOUDY    53  40  62 S3        30.15F
WISE*          CLOUDY    54  43  66 S8        30.14F
ABINGDON*      CLOUDY    45  40  85 CALM      30.16F
$$

MDZ021>025-VAZ099-100-220700-
SOUTHERN MARYLAND AND THE DELMARVA PENINSULA

CITY           SKY/WX    TMP DP  RH WIND       PRES   REMARKS
PATUXENT RIVER NOT AVBL
BAY BRIDGE APT CLOUDY    46  37  71 SE6       30.13F
LEONARDTOWN    MOCLDY    52  37  58 SW6       30.17F
DOVER          CLOUDY    51  45  79 S10       30.13F
GEORGETOWN     CLOUDY    53  40  61 SW12      30.16F
EASTON         FAIR      51  39  63 SW7       30.18F
CAMBRIDGE      CLOUDY    45  39  81 S7        30.16F
SALISBURY      MOCLDY    50  41  71 SW9       30.17F
OCEAN CITY     CLOUDY    54  43  66 SW13G21   30.18F
WALLOPS ISLAND MOCLDY    54  43  66 SW12      30.19F
ACCOMACK*      CLOUDY    53  43  69 S9        30.20S
$$

NCZ012>017-030>032-220700-
NORTH CENTRAL AND EASTERN NORTH CAROLINA

CITY           SKY/WX    TMP DP  RH WIND       PRES   REMARKS
ROANOKE RAPIDS FAIR      37  36  93 CALM      30.21S
RALEIGH        FAIR      42  39  89 CALM      30.21F
ELIZABETH CITY FAIR      39  39 100 CALM      30.23S
AHOSKIE*       FAIR      38  34  87 SE3       30.22S
EDENTON*       FAIR      42  38  88 CALM      30.23S
CURRITUCK*     FAIR      40  38  91 CALM      30.23S
KILL DEVIL HLS FAIR      45  36  70 CALM      30.21S
MANTEO         FAIR      37  36  95 CALM      30.23S
CAPE HATTERAS  NOT AVBL
TARBORO*       NOT AVBL
GOLDSBORO      FAIR      42  40  90 CALM      30.20S
WASHINGTON     FAIR      39  37  91 CALM      30.23S
GREENVILLE     FAIR      39  37  93 CALM      30.23F
NEW BERN       FAIR      37  37 100 CALM      30.24R
WILMINGTON     FAIR      39  37  92 CALM      30.23S
$$

VAZ048-220700-
ELSEWHERE

CITY           SKY/WX    TMP DP  RH WIND       PRES   REMARKS
HARRISBURG PA  CLOUDY    41  37  86 CALM      30.11F
BALTIMORE      CLOUDY    43  38  82 CALM      30.12F
ANNAPOLIS      CLOUDY    40  37  89 SE6       30.13F
ANDREWS AFB    MOCLDY    53  39  58 SW13      30.13F
PHILADELPHIA   MOCLDY    44  35  70 CALM      30.14S
HENDERSON NC   FAIR      41  37  85 S5        30.20F
GREENSBORO     FAIR      47  41  80 S5        30.19F
ROCKY MOUNT    NOT AVBL
$$

VAZ100-220700-
MARINE

STATION/POSITION TIME  TEMP    WIND        PRES    WAVE   SWELL
                       AIR SEA DIR/SP/G            HT/PER HT/PER
                 (UTC) (F)     (DEG/KT/KT) (MB)    (FT/S) (FT/S)
BRANDYWINE LGT   0542   49     210/ 14/ 14 1021.2F
CAPE MAY NJ      0548   44 35  170/  5/  7 1020.7F
LEWES DE         0542   53 34  240/  8/ 12 1020.8F
15NM E FENWICK I 0550   45 41  190/ 12/ 16 1022.1F   1/ 6   2/ 6
OCEAN-CITY-INLET 0542   48 37  230/ 10/ 14 1022.2F
WACHAPREAGUE VA  0542   46 39  210/  6/  8 1022.7S
THOMAS POINT MD  0600   42 33  170/ 14/ 15   N/A
GOOSES REEF MD   0600   37 34  160/  6/  8 1021.3    1
COVE POINT MD    0542   43     180/ 11/ 11 1021.9F
SOLOMONS ISLAND  0542   50 36  210/ 10/ 12 1021.0F
BISHOPS HEAD MD  0542   43 39  200/ 10/ 11 1022.0F
PINEY POINT MD   0548           CALM  /  2   N/A
POTOMAC MD       0600   43 36  300/  4/  6 1021.0    0
CAMBRIDGE MD     0542   48 33              1022.0F
LEWISETTA VA     0542   53 36  230/ 10/ 11 1021.6F
RAPPAHANNOCK LGT 0542          200/ 10/ 11 1023.3R
STINGRAY PT      0600   39 34  170/  6/  8 1025.0    1
YORK RVR RNG VA  0542   51     230/  5/  8 1023.0R
YORKTOWN VA      0542   55 36  230/ 11/ 16 1021.8S
DOMINION TERM VA 0542   48     170/  3/  4 1022.8F
KIPTOPEKE VA     0542      36  170/ 10/ 12   N/A
CAPE HENRY VA    0542   54     180/  7/ 10   N/A
WILLOUBY STN VA  0542          190/ 13/ 14 1022.3F
S CRANEY ISL VA  0542   48     180/  8/ 10 1022.6F
CAPE HENRY BUOY  0600      40                N/A     1/11
1ST LANDING BUOY 0600   44 36  180/ 10/ 10 1022.3    1
CAPE CHARLES BUO 0551      40                N/A     1/11
64NM E OF VA BCH 0550   54 58  280/  6/  8 1023.7F   2/11   2/11
DUCK PIER NC     0542   47 40  250/  4/  7 1022.8F
44100 DUCK FRF   0545      40                N/A     1/11
44056 DUCK FRF   0530      41                N/A     1/11
OREGON INLET NC  0542   42 44  290/  3/  4 1023.4F
HATTERAS NC      0542   47 50  340/  2/  2 1023.0F
DIAMOND SHLS NC  0600   60     280/  2/  4 1023.4
CAPE LOOKOUT NC  0600           CALM  /  1 1023.7S
$$




USA.gov is the U.S. government's official web portal to all federal, state and local government web resources and services.